Theta_e
287 288 288 288 287 289 288 290 287 290 292 296 300 302 305 307 306 304 304 303 308 311 313 315 315 316 317 317 317 317 316 316 316 317 318 318 319 319 320 321 321 322 322 321
284 288 288 286 289 291 291 292 292 292 293 300 303 303 302 304 304 304 306 305 306 309 312 313 315 316 316 317 317 317 315 315 316 316 316 317 318 319 320 321 322 321 319 318
281 288 288 284 288 291 293 294 294 290 296 300 299 300 302 304 305 304 305 305 305 305 309 312 314 315 316 316 318 317 315 315 315 315 315 316 317 318 318 319 320 318 317 315
281 284 278 289 295 296 293 294 297 297 299 300 302 304 304 305 305 305 305 305 305 304 307 310 311 312 313 314 316 316 316 314 314 314 313 313 315 315 312 308 306 304 301 300
279 281 286 287 293 293 291 292 298 296 299 301 303 300 301 303 304 304 305 304 307 308 310 310 310 311 311 311 310 310 310 310 310 310 308 306 305 303 302 300 297 295 294 292
282 278 277 288 296 299 298 289 300 300 300 300 302 296 300 303 304 307 307 307 307 308 308 309 309 311 309 307 305 303 303 303 304 304 302 301 300 298 295 293 290 289 287 287
280 280 285 294 297 301 286 290 300 302 302 301 299 302 304 306 304 303 303 304 306 307 306 307 308 307 303 302 300 301 301 301 300 299 297 296 295 293 290 288 286 285 283 284
282 280 278 297 298 291 295 299 301 303 303 303 303 303 306 306 304 303 302 303 304 303 303 304 303 302 299 296 297 296 296 294 294 293 293 293 291 289 288 286 284 283 281 281
286 284 296 298 297 300 303 299 302 303 305 304 302 303 304 302 302 301 300 300 300 299 297 298 300 299 294 293 293 292 290 289 288 288 288 289 288 287 285 285 283 282 281 280
289 292 294 297 299 300 301 301 303 306 305 305 303 304 302 301 297 295 296 295 293 291 289 288 290 292 291 291 290 289 288 287 286 286 285 286 285 285 285 284 283 282 281 279
289 292 295 297 298 299 300 303 304 305 306 304 303 296 294 292 291 289 289 289 289 287 286 285 286 287 288 288 289 287 287 286 285 284 283 282 282 283 282 282 283 283 283 283
286 293 294 295 298 299 301 298 297 301 305 304 299 293 289 287 287 287 286 286 285 285 285 284 285 286 287 288 288 287 285 285 284 284 283 282 282 281 283 282 282 282 282 282
291 295 297 297 298 299 299 296 294 294 295 293 292 290 287 285 285 284 284 284 283 282 283 283 282 282 283 285 285 284 283 282 282 282 282 281 282 281 278 279 279 280 280 279
296 296 294 295 295 297 296 293 291 290 289 288 287 286 285 283 283 282 281 281 281 280 280 280 279 279 281 281 281 280 279 279 280 279 280 279 279 279 279 277 275 275 275 275
295 296 296 297 295 292 292 292 289 287 286 285 285 283 282 281 280 279 279 279 279 278 277 278 277 277 279 279 279 279 278 277 277 277 276 276 276 275 275 274 273 272 272 272
296 296 298 295 293 291 290 288 284 283 282 280 280 279 279 279 277 277 277 278 275 274 275 275 275 276 277 277 276 275 275 274 274 274 273 273 273 272 272 271 270 269 269 268
293 294 293 291 287 285 286 285 284 282 280 279 278 277 276 275 274 273 273 274 273 273 274 274 274 276 276 276 275 274 273 272 271 271 271 270 270 270 269 269 268 268 267 265
289 288 289 292 285 282 281 281 281 280 278 277 276 275 274 272 271 271 272 272 272 271 272 273 274 273 273 273 273 272 271 270 269 268 268 268 268 268 267 266 266 266 266 265
284 284 284 283 283 282 280 279 279 277 276 275 274 272 272 272 272 271 272 271 270 269 270 272 272 271 271 270 270 269 268 268 267 267 266 265 265 265 265 265 264 263 264 263
281 281 281 280 281 280 278 278 277 275 274 273 272 271 270 270 271 271 271 269 270 270 270 270 269 268 268 267 268 268 267 266 265 264 264 263 263 263 263 261 262 262 262 262
280 279 278 277 276 276 276 275 274 272 272 272 270 269 269 270 270 270 269 267 268 269 269 268 268 267 267 266 266 265 264 263 263 262 262 261 261 261 260 260 260 260 259 259
277 276 275 275 274 274 274 274 273 272 270 269 269 269 268 267 267 267 268 267 267 267 267 266 265 264 264 264 264 263 263 262 262 261 261 260 260 259 259 259 258 258 258 258
275 274 274 273 272 272 272 272 271 270 269 270 269 269 269 269 269 266 264 266 266 265 265 263 261 260 260 262 261 261 260 260 260 259 259 259 258 258 258 257 257 257 256 256
274 274 273 273 273 272 270 271 271 270 269 269 268 268 267 265 265 266 265 263 262 263 263 262 260 259 260 260 260 259 260 259 259 259 258 255 257 257 257 256 255 256 255 255
274 274 273 272 271 270 270 270 270 269 269 268 268 268 268 267 265 265 264 263 263 262 261 258 258 257 260 260 259 259 259 259 258 258 257 257 256 256 256 255 254 255 254 254
274 273 273 273 272 271 270 270 268 267 266 265 265 265 265 265 264 264 262 261 261 260 260 259 259 259 259 259 259 258 259 258 258 257 256 256 255 255 254 254 254 254 254 254
272 272 271 270 271 271 270 268 267 266 266 265 263 264 263 263 262 261 260 259 259 258 258 259 259 259 259 259 258 257 257 257 254 256 256 255 254 254 253 253 253 253 253 253
Wind_Speed
13 13 18 14 17 21 21 18 15 8 16 16 15 13 13 11 7 5 7 9 11 12 14 15 16 16 16 17 17 17 17 17 17 13 13 14 14 14 14 14 14 14 13 13
10 14 17 18 22 22 24 21 23 21 20 10 14 7 10 11 8 9 9 9 9 11 13 15 16 16 14 14 15 15 16 16 14 13 13 13 14 14 13 14 14 12 12 12
4 8 11 13 11 16 15 19 18 17 13 6 7 8 10 10 8 11 12 12 11 11 9 7 9 8 10 12 13 15 14 13 12 12 12 11 10 11 11 12 10 10 10 7
5 7 9 4 6 10 15 20 18 16 8 8 9 8 7 9 11 12 12 14 11 4 6 7 5 7 7 7 8 9 8 7 7 7 6 5 5 5 1 4 5 5 7 7
5 7 11 12 2 3 7 24 17 18 15 13 11 2 11 9 7 13 8 1 4 7 10 11 10 11 12 10 10 9 7 6 5 4 5 6 7 7 6 8 8 9 9 10
4 6 7 1 4 4 5 13 14 8 10 14 11 10 10 4 5 8 5 10 12 12 12 14 12 12 14 12 11 11 10 9 8 8 9 9 9 10 10 10 10 9 12 12
11 8 8 9 1 2 4 6 18 11 14 12 8 7 3 8 11 14 10 12 12 13 12 11 12 14 15 14 13 11 12 12 12 11 11 10 10 9 9 10 11 11 13 12
8 6 11 2 2 3 6 13 14 12 10 12 5 5 11 12 17 16 12 11 10 12 13 14 14 15 15 15 12 13 14 14 14 13 10 9 12 11 11 11 12 11 11 11
7 6 10 13 8 10 9 9 13 5 4 8 8 5 15 15 15 15 14 11 10 13 17 15 13 13 17 13 14 15 16 16 14 14 13 12 12 12 10 10 9 8 7 7
2 2 10 16 17 10 11 14 7 5 6 7 10 11 16 16 14 13 11 11 11 16 18 17 16 16 16 15 16 17 18 16 14 14 14 14 11 9 9 8 7 7 6 6
6 8 7 5 7 12 18 10 6 5 4 12 12 15 15 13 15 13 12 11 13 14 16 17 16 18 15 12 17 18 17 14 13 12 14 14 13 10 11 12 10 8 7 6
8 9 8 11 9 14 11 8 7 4 7 9 19 17 15 14 12 12 13 13 14 15 17 16 21 18 14 13 15 17 15 11 10 9 10 9 10 12 24 21 21 20 18 11
16 13 7 8 10 3 1 3 2 12 14 14 13 15 17 14 12 16 15 15 15 16 18 18 20 17 14 14 15 16 15 13 10 10 9 10 9 9 11 16 28 29 26 24
12 5 9 5 7 3 5 8 7 11 16 16 16 15 18 15 13 13 14 15 15 20 18 18 18 16 14 13 16 16 15 17 11 10 10 10 9 9 8 8 9 9 19 18
17 9 13 8 2 5 7 7 4 11 11 16 16 14 16 16 16 13 13 16 17 18 17 18 17 16 13 12 15 14 13 11 11 11 10 11 10 10 9 9 8 8 7 10
3 4 5 8 7 6 6 10 8 10 12 17 16 16 19 18 17 16 15 14 18 16 14 16 16 13 12 13 15 14 14 16 13 10 10 10 9 9 8 8 8 8 7 8
3 5 2 4 6 6 7 10 10 9 14 17 18 18 18 18 18 18 16 16 18 18 15 15 15 13 14 14 14 11 10 11 13 11 10 9 9 9 8 8 7 7 8 9
2 4 6 5 10 11 12 14 11 13 16 19 18 17 17 17 18 16 16 16 19 19 16 14 14 15 15 14 13 11 10 10 10 10 9 9 9 8 8 8 8 7 7 8
6 5 7 10 10 13 14 16 12 14 16 17 19 19 18 17 16 16 15 18 17 17 14 14 18 16 15 15 13 10 11 11 11 9 9 10 9 9 8 8 8 7 6 6
8 10 13 14 14 15 16 16 14 15 14 19 19 19 18 16 15 16 17 18 14 11 14 14 15 14 14 14 13 10 11 11 11 10 9 9 8 8 7 8 7 6 6 6
9 11 14 16 16 15 15 14 16 17 16 16 19 19 17 17 14 14 16 13 14 14 14 14 12 10 9 10 10 10 10 10 10 9 8 7 7 7 6 6 6 6 5 5
8 11 12 14 15 17 14 15 17 17 18 19 18 16 18 17 16 16 14 13 10 13 10 10 9 12 10 12 9 10 10 10 8 7 7 6 6 6 6 5 5 5 5 5
9 12 13 13 16 17 17 17 17 18 18 16 16 16 14 11 10 11 12 10 10 12 10 9 12 14 13 9 9 9 9 8 7 6 6 6 5 4 4 4 4 5 5 5
12 14 15 15 16 16 18 16 17 18 17 15 16 14 13 10 11 10 12 14 14 12 10 9 11 13 11 8 7 7 7 7 6 6 6 4 3 3 4 4 4 4 4 4
13 14 15 15 17 12 16 17 17 16 17 17 16 14 14 9 9 9 10 10 14 12 10 12 12 10 7 7 7 6 6 6 5 4 3 3 3 3 4 3 3 4 4 5
12 10 10 13 12 10 9 10 11 10 11 12 11 10 10 9 10 10 10 11 10 10 8 6 6 6 6 6 6 6 5 5 3 3 3 3 3 3 3 4 4 4 5 5
12 13 12 11 10 9 9 10 11 11 10 10 12 9 10 9 10 10 10 9 8 7 6 5 5 5 5 5 5 4 3 3 2 3 3 3 3 3 4 4 5 5 5 5
Wind_Direction
242 253 279 272 278 288 276 253 256 253 233 226 246 257 258 254 247 227 236 211 206 212 197 200 201 205 200 203 199 196 201 207 215 215 215 213 212 216 220 224 228 230 234 237
253 233 243 267 279 276 269 273 264 265 255 215 237 254 257 258 249 229 250 250 229 204 203 197 199 201 199 194 194 192 201 209 211 209 206 207 209 214 216 221 228 227 231 234
249 205 221 253 253 279 267 255 243 231 222 196 220 238 247 261 266 243 249 228 238 230 211 215 196 188 191 176 175 186 197 202 201 202 211 215 211 217 225 232 232 228 236 241
292 296 224 224 316 326 296 263 233 238 218 213 220 228 231 242 260 263 242 237 225 150 133 112 101 110 111 129 157 168 171 163 164 175 176 183 201 218 124 55 69 68 60 57
244 276 300 294 205 58 5 311 277 242 242 231 241 250 259 237 236 258 272 188 111 122 124 114 113 112 106 96 98 96 96 99 109 121 104 94 86 85 85 85 72 64 58 61
215 240 249 213 213 138 255 288 0 341 303 254 233 241 254 40 29 43 41 101 106 102 108 105 109 107 101 93 88 80 75 71 70 76 82 83 82 79 76 79 81 79 72 64
231 257 290 276 186 188 104 307 316 329 336 303 224 241 127 107 82 70 61 83 96 100 94 92 90 92 89 87 83 86 85 79 70 64 70 74 77 76 84 84 83 76 74 63
219 241 241 309 212 98 198 276 283 285 321 324 262 127 106 80 82 73 68 68 77 93 83 84 88 93 91 82 81 77 74 70 66 62 62 67 72 70 70 74 75 72 73 69
208 210 303 277 289 285 262 202 268 261 344 333 29 54 100 90 79 77 73 68 74 83 78 65 72 89 97 92 88 81 74 68 66 67 64 62 69 71 74 74 78 79 80 79
295 272 238 289 286 264 285 264 243 220 116 64 72 84 90 97 92 89 83 94 89 78 77 69 65 67 71 83 90 88 85 80 74 71 69 64 62 56 62 66 74 76 76 76
281 277 260 217 356 330 310 318 346 336 138 117 101 77 85 86 87 90 86 84 85 88 85 80 77 69 69 81 92 90 87 82 77 74 73 72 63 58 64 55 58 72 71 72
257 273 273 291 325 324 331 358 351 15 104 102 116 106 97 85 83 91 94 88 83 89 89 87 77 70 72 79 85 89 86 81 80 82 82 82 83 80 67 67 67 68 64 70
261 277 251 282 294 300 264 359 29 85 82 89 84 108 112 104 103 100 96 93 88 89 83 79 76 77 67 67 74 80 86 86 82 76 78 80 81 92 96 77 64 59 62 63
255 250 277 246 285 34 118 90 51 90 93 100 103 97 90 96 90 91 95 94 96 83 76 74 78 72 68 72 80 81 79 75 77 77 78 78 77 75 73 74 72 65 51 51
259 243 247 272 152 123 121 126 109 89 96 97 96 97 94 93 92 88 85 84 79 83 83 78 77 72 68 72 75 79 79 78 78 76 71 73 73 72 72 71 68 62 54 52
267 312 278 220 166 135 125 96 104 106 106 93 90 92 97 96 92 83 77 82 89 72 75 79 74 74 77 80 84 81 77 78 80 80 77 73 71 73 74 74 71 62 50 36
269 279 221 238 135 112 106 110 122 127 114 106 105 103 97 99 90 84 82 83 79 79 73 74 78 80 83 84 86 88 86 81 83 79 75 74 72 73 72 69 68 62 60 37
347 325 291 230 157 131 112 107 122 130 117 111 112 107 102 96 97 96 94 89 82 76 68 73 81 82 81 80 83 85 86 83 78 76 75 75 75 71 68 65 56 51 44 49
43 69 73 92 118 117 116 115 121 118 114 112 108 103 101 98 101 99 95 86 84 85 77 78 80 80 80 79 82 83 84 85 83 81 81 78 70 65 62 60 57 50 41 34
86 91 100 103 104 111 110 108 123 109 106 108 106 101 97 95 95 91 86 82 81 89 90 85 83 80 78 74 78 83 86 88 85 78 71 71 68 64 65 60 53 45 32 21
102 105 103 102 99 96 101 115 113 106 109 103 103 102 100 98 92 96 95 92 85 85 85 83 81 82 82 86 82 82 82 82 78 76 74 75 76 68 62 49 39 26 14 5
89 98 99 105 105 103 107 111 107 106 103 100 95 97 97 92 91 83 75 92 95 89 87 81 79 79 83 84 82 83 83 82 83 82 81 77 70 62 49 34 21 9 5 1
90 94 99 101 102 103 103 99 96 99 100 99 105 99 97 98 100 103 101 87 92 87 88 86 88 83 83 84 83 83 83 84 85 85 81 69 59 46 28 17 8 5 359 348
94 97 95 97 97 96 95 92 95 93 92 92 86 88 100 103 87 81 89 92 90 89 90 93 91 86 84 83 84 85 87 90 88 77 73 67 43 18 18 10 1 348 329 323
101 98 95 97 94 93 98 99 96 96 96 88 89 89 93 89 93 107 98 96 93 92 90 86 89 84 85 88 87 87 85 78 75 75 56 33 17 15 8 355 325 319 319 319
99 93 94 91 96 102 100 101 95 92 93 93 88 89 88 90 95 97 94 95 90 92 96 98 97 93 89 86 85 77 76 89 88 59 21 18 12 1 336 320 316 321 321 319
85 88 89 82 76 82 87 92 99 99 99 104 101 96 100 103 99 100 95 91 90 94 99 94 89 85 83 75 74 78 91 94 46 19 14 4 345 322 317 320 321 317 315 318